Presure
126 128 137 129 130 138 137 121 131 134 139 142 144 146 157 158 129 155 129 143 137 160 151 133 144 149 148 136 132 136 162 132 146 135 137 130 131 128 132 136 147 132 139
148 128 101 139 124 127 141 115 132 133 152 151 142 128 150 159 134 157 121 134 128 128 159 129 134 126 144 142 140 141 148 141 118 126 150 127 145 144 127 134 135 128 148
104 146 98 134 127 127 129 127 136 123 146 131 123 148 149 131 153 135 151 139 136 156 140 134 152 131 161 146 123 130 148 139 120 127 117 134 155 122 124 133 150 115 132
141 127 96 109 147 124 138 139 125 132 118 126 124 136 135 137 143 141 140 124 126 132 156 132 125 158 141 137 150 146 135 123 168 152 137 150 131 126 151 143 141 161 167
138 113 126 134 145 144 138 141 144 138 122 113 119 123 128 146 139 143 119 140 143 114 151 127 130 125 110 126 145 118 121 119 117 131 132 129 146 140 155 130 139 161 168
123 150 158 133 123 128 106 128 136 145 139 122 115 120 125 125 146 137 139 117 141 111 122 139 130 138 132 145 122 131 141 108 129 147 119 150 78 133 128 114 145 148 116
129 130 118 137 112 125 139 153 130 125 137 156 138 139 119 118 125 140 133 109 119 129 122 105 110 122 119 113 109 150 109 123 151 134 151 156 148 162 145 171 139 126 134
138 119 120 139 138 126 138 108 138 134 146 135 144 121 122 133 123 126 108 109 119 102 108 116 122 125 104 114 103 135 138 148 145 140 161 108 126 112 110 151 116 153 138
121 146 123 143 136 140 123 119 120 117 115 125 146 141 155 133 138 118 118 128 101 97 98 100 102 98 118 108 141 124 115 126 121 159 123 159 125 149 166 127 132 127 117
113 146 160 130 123 134 149 126 123 142 137 127 158 117 146 158 145 125 123 116 128 128 103 104 108 101 101 94 115 115 116 120 156 131 136 119 141 129 175 166 156 197 165
131 136 153 148 127 128 133 153 144 152 140 137 126 137 163 135 132 173 136 114 126 126 106 102 120 151 118 111 117 112 113 120 121 139 149 149 120 124 113 139 134 128 186
142 124 122 136 153 139 125 131 153 140 118 135 154 129 139 166 136 145 168 145 145 123 125 106 136 143 110 110 115 127 139 116 113 107 111 128 116 122 133 164 172 170 122
151 160 142 152 140 154 155 142 128 128 161 135 136 131 133 167 165 159 125 130 149 167 120 122 130 138 142 135 126 108 117 160 111 154 105 119 119 119 145 124 176 125 135
171 172 168 171 173 173 136 165 158 146 162 125 131 167 107 112 147 117 164 151 127 140 158 115 122 120 108 128 132 110 118 112 114 123 120 117 137 121 131 120 141 167 130
171 172 174 175 174 174 181 125 132 141 177 149 170 157 146 163 138 143 160 160 153 169 139 145 119 119 123 111 112 127 137 116 95 108 110 130 123 110 104 156 116 138 157
170 169 173 175 179 173 173 175 178 180 166 184 186 164 143 181 172 173 155 179 146 143 163 160 162 162 118 121 121 106 114 100 110 116 101 113 177 141 156 109 168 162 126
231 205 189 168 197 179 178 178 178 177 178 177 179 178 174 137 141 154 192 167 126 131 137 149 173 120 170 152 116 117 124 153 122 105 133 114 119 151 108 110 178 163 151
214 217 222 226 229 213 208 185 185 182 180 182 181 180 179 182 182 143 164 173 165 171 142 174 132 135 142 150 144 163 144 125 149 118 142 114 170 110 158 116 109 112 148
195 199 203 207 191 172 172 188 178 183 189 191 194 190 180 175 182 184 183 174 152 145 174 135 136 163 142 172 133 148 158 138 124 136 141 127 152 151 152 143 160 172 135
181 184 188 191 193 194 197 199 203 205 209 209 200 181 181 180 181 181 183 182 181 178 169 175 147 153 176 149 162 125 142 156 145 145 120 136 124 177 127 147 127 153 146
201 202 202 200 188 182 183 184 185 190 192 195 199 203 202 202 212 215 221 185 195 200 193 187 185 183 176 173 150 149 153 158 145 145 119 173 175 167 180 161 166 155 144
185 186 187 191 193 171 172 191 168 179 193 180 202 197 197 201 209 214 213 215 215 222 220 206 194 186 185 182 176 151 179 175 133 178 157 144 142 167 157 129 104 126 177
181 182 186 186 187 188 189 191 192 194 197 203 206 211 201 199 191 193 197 206 206 212 214 209 224 227 226 205 183 180 167 136 155 156 153 163 163 117 155 163 148 150 183
209 210 207 197 203 204 204 190 188 189 189 193 197 214 217 226 234 231 231 220 199 196 211 199 219 214 208 229 227 224 216 190 183 176 138 158 170 177 119 116 172 147 126
212 213 212 210 214 222 229 231 229 226 234 237 247 256 263 240 210 238 229 214 234 225 216 199 210 184 209 210 195 198 221 228 218 220 206 189 178 129 129 114 192 173 144
204 204 203 203 218 216 223 219 215 221 226 239 244 248 249 251 255 261 272 274 264 219 211 222 209 202 204 189 201 212 192 198 226 230 211 196 235 178 131 147 192 181 183
Wind_Speed
47 45 45 40 40 41 40 38 38 39 40 38 39 36 35 35 34 38 33 42 37 45 44 45 56 65 67 36 30 39 57 23 54 28 33 24 18 16 27 25 46 26 34
51 48 34 46 42 41 45 37 41 41 43 42 41 36 38 37 37 38 29 36 30 31 47 35 40 30 60 48 46 52 64 50 23 19 56 19 54 54 18 22 24 21 52
39 53 37 50 45 46 46 45 45 43 44 43 36 42 41 37 42 40 43 35 39 40 40 37 47 37 49 61 24 29 61 44 24 25 25 29 70 22 25 23 55 29 41
51 52 40 42 54 48 49 50 47 49 42 45 42 42 44 45 46 46 41 31 35 37 44 37 33 49 42 38 48 50 34 24 65 65 45 61 42 37 57 44 40 70 52
64 50 55 56 58 57 54 53 52 52 49 41 44 45 45 51 50 50 36 43 45 35 52 33 33 33 31 34 47 30 34 26 28 35 30 40 40 44 54 26 38 60 59
59 62 58 61 55 58 46 54 54 57 57 51 46 49 50 48 56 55 50 37 53 39 35 48 38 49 39 49 31 34 43 31 30 51 28 51 25 34 37 32 36 41 31
66 68 58 67 55 61 64 64 59 55 59 61 61 61 51 48 52 56 56 44 43 50 42 38 40 37 37 38 38 54 36 33 53 33 52 46 52 49 46 47 41 41 45
73 64 65 72 72 66 70 53 68 62 69 62 65 57 58 63 53 57 49 48 46 45 44 45 47 44 39 41 39 46 48 54 52 49 48 38 35 38 34 57 32 48 44
71 76 66 78 77 78 66 63 63 61 58 62 71 69 69 67 70 54 54 62 52 49 45 43 43 41 46 43 53 43 41 38 37 48 38 49 39 59 46 37 47 36 37
66 82 89 81 71 80 84 72 68 80 76 68 79 61 75 75 73 65 63 56 64 60 50 49 48 46 45 45 46 44 42 39 54 42 45 41 54 43 54 45 48 43 49
85 87 88 86 81 82 80 86 86 86 83 78 72 76 82 74 74 78 74 59 67 66 54 52 57 69 55 49 49 48 44 44 42 50 53 50 43 43 39 51 51 46 39
90 87 82 83 91 88 81 86 91 81 70 81 86 76 79 83 78 80 82 80 78 67 66 55 68 69 53 53 54 56 58 46 45 46 45 48 45 47 49 48 45 44 46
101 104 95 100 93 97 99 98 87 83 94 86 87 80 80 89 87 85 75 76 85 83 65 62 67 71 70 66 63 53 53 67 48 60 48 51 51 48 53 46 47 51 54
107 109 106 107 110 112 99 111 102 102 99 77 83 96 70 74 89 77 88 92 80 81 80 62 68 65 59 68 69 55 56 53 50 52 55 53 58 53 57 48 58 47 58
104 106 107 109 110 111 111 92 96 100 114 103 106 102 95 99 93 93 89 95 88 93 81 82 72 71 71 62 61 67 63 60 56 54 56 60 59 53 52 56 51 58 51
104 104 109 112 113 112 111 112 112 112 109 111 110 104 102 107 103 101 95 98 95 91 92 93 92 83 71 71 70 62 62 60 59 60 60 62 55 59 57 54 52 50 59
76 97 110 107 108 112 114 114 114 114 115 113 112 111 110 102 104 106 107 104 86 86 89 91 94 78 89 85 73 70 70 76 66 64 65 66 64 56 58 58 47 52 52
80 82 83 86 90 102 107 117 116 119 118 119 118 115 114 113 111 104 106 106 108 103 101 102 81 81 85 87 86 84 78 74 78 67 70 67 64 63 64 60 59 58 57
85 86 88 90 103 113 114 112 117 119 120 121 121 122 118 115 118 116 114 112 107 108 106 97 91 99 89 94 85 85 87 82 77 77 73 72 66 69 69 70 64 50 68
92 93 95 97 99 101 103 105 107 109 111 114 119 122 123 121 121 121 120 118 117 116 113 110 107 100 103 97 96 84 86 88 85 83 74 74 75 63 73 71 69 67 66
83 86 90 95 104 109 112 114 116 117 119 120 121 123 124 126 121 121 120 121 124 126 122 117 113 108 107 107 99 96 91 89 89 87 79 74 71 68 59 64 65 70 70
90 93 97 100 103 109 111 112 118 121 122 125 124 129 132 132 130 129 127 124 125 121 123 124 118 111 111 110 108 97 96 93 90 86 89 85 80 75 74 80 69 71 56
97 100 102 105 108 111 114 117 120 124 127 129 133 135 134 132 128 125 127 129 128 126 124 121 120 116 113 117 111 109 100 93 99 93 90 88 87 82 77 73 81 78 59
96 100 104 109 111 114 117 122 126 129 133 136 136 140 141 139 140 139 137 135 134 128 130 124 125 121 113 108 110 108 107 102 100 96 92 90 87 83 84 86 70 79 79
94 98 102 107 109 110 110 111 117 126 130 139 141 140 140 138 136 142 138 135 136 136 137 135 131 114 119 113 110 107 104 101 98 98 95 92 90 90 86 87 74 73 80
95 101 105 109 104 108 111 119 127 133 139 142 142 140 139 136 135 134 134 138 140 135 132 135 138 133 130 116 112 109 102 97 97 93 95 90 90 88 91 87 74 72 71
Wind_Direction
242 241 236 234 235 231 232 243 238 234 232 239 231 233 238 238 234 235 232 231 232 223 222 227 232 234 237 246 243 253 243 248 252 261 268 247 256 246 264 284 275 276 270
233 243 256 235 235 237 233 246 239 238 230 230 232 242 233 235 233 231 225 230 233 241 221 240 240 240 237 244 247 244 248 251 217 241 259 243 263 265 239 275 279 261 282
255 233 259 240 241 235 234 238 237 246 229 242 242 234 236 240 234 237 232 233 241 229 236 232 227 242 232 234 232 248 247 247 218 243 229 266 257 229 238 267 273 252 265
248 244 257 252 235 244 238 233 240 236 248 248 248 241 245 240 237 237 237 239 236 231 230 237 232 230 236 238 241 243 242 231 248 255 255 261 253 258 271 273 270 268 275
242 249 246 245 237 239 245 238 236 239 244 251 250 247 245 239 240 238 227 232 233 216 233 241 248 242 230 242 244 238 237 236 230 254 261 266 268 250 260 251 283 273 273
251 243 251 244 248 247 253 245 241 238 236 242 246 252 249 248 239 242 236 226 239 220 227 242 244 249 254 249 238 264 241 232 261 258 245 262 265 270 257 241 282 273 249
245 247 250 244 249 247 242 251 244 241 239 247 239 237 246 247 248 240 243 225 230 243 242 226 225 239 232 229 229 251 233 247 255 256 261 266 263 261 266 273 284 256 263
242 252 251 248 246 248 243 253 245 245 246 240 240 244 245 241 244 247 238 235 231 234 229 233 238 243 231 239 238 252 254 254 257 260 258 237 257 239 244 268 251 275 283
250 248 252 244 245 244 250 251 251 250 250 243 244 241 249 240 237 246 247 250 237 243 242 237 235 237 241 235 253 247 241 252 249 257 256 256 254 262 274 264 273 268 252
256 245 252 249 255 247 249 251 250 243 245 248 246 248 246 249 241 246 245 245 248 250 239 238 238 238 238 242 240 241 242 247 253 256 255 251 256 263 276 269 259 289 265
246 243 253 253 256 255 253 254 253 254 247 247 248 246 252 247 241 259 242 246 247 248 242 241 247 249 245 243 244 244 244 244 244 250 255 257 256 262 253 266 268 273 286
252 253 256 250 254 251 256 253 253 252 251 248 250 250 247 254 248 246 253 246 248 248 246 242 247 246 246 245 247 249 254 247 247 251 252 257 256 257 256 267 274 267 267
250 254 246 255 255 254 255 247 256 255 255 253 252 254 253 262 253 250 248 247 247 252 249 249 248 246 248 247 248 249 249 257 248 256 254 256 258 261 256 264 278 271 267
254 255 254 255 257 257 253 257 251 247 257 255 255 258 254 249 251 251 252 248 249 244 250 246 250 249 245 247 248 249 248 251 251 251 255 256 256 261 261 264 260 271 267
254 255 256 257 257 257 259 256 258 253 260 251 258 256 255 251 256 252 255 248 256 254 247 248 250 251 250 247 247 250 251 249 250 252 255 256 258 258 259 268 266 256 263
254 254 256 257 257 257 257 257 258 259 259 260 261 259 253 261 258 256 257 258 253 254 256 250 250 251 250 250 250 244 246 246 248 251 253 256 262 262 266 262 272 270 263
251 252 255 255 254 258 258 259 259 260 260 259 259 259 259 257 255 251 261 256 251 253 255 254 252 249 251 250 251 250 251 253 251 247 252 254 257 259 258 261 269 269 265
256 256 257 257 256 257 257 259 260 261 261 261 260 259 259 259 259 256 254 255 251 253 254 256 246 246 250 250 251 252 251 250 254 251 250 252 258 256 262 260 261 264 263
258 258 258 258 258 258 259 260 260 260 260 261 261 260 259 256 259 258 257 255 254 254 253 253 251 255 247 253 248 251 252 249 250 251 249 252 255 258 261 260 264 262 258
261 261 261 261 261 261 260 260 260 260 260 259 259 260 259 258 257 257 256 255 255 255 254 252 253 253 255 251 250 248 250 252 254 254 249 250 253 251 257 260 260 263 264
259 260 260 260 260 261 261 261 262 261 260 259 258 257 257 257 255 256 255 255 257 258 257 254 252 251 252 253 251 249 249 249 253 254 248 253 253 251 249 253 254 262 260
261 260 260 260 260 266 266 263 266 265 262 263 259 258 258 258 256 254 254 254 256 254 252 255 253 251 252 252 254 250 249 250 250 253 252 252 251 251 252 255 255 259 253
263 264 264 264 264 263 263 262 262 262 261 261 260 258 259 260 262 262 260 258 257 255 255 254 252 250 249 253 251 252 250 249 250 250 250 251 252 251 251 248 257 258 251
267 267 266 265 266 266 266 265 265 265 266 265 265 261 261 260 256 254 252 253 259 259 254 258 254 253 251 246 246 248 249 250 249 249 247 248 249 251 252 255 243 252 258
272 271 271 270 271 271 272 271 270 268 268 266 265 265 263 263 266 260 258 258 252 250 252 257 253 257 254 251 249 250 246 245 246 245 247 246 248 247 247 254 248 245 254
274 274 273 273 277 276 275 273 272 271 270 271 271 271 271 269 265 261 257 252 250 253 251 247 251 256 256 253 252 247 248 247 242 241 243 245 241 246 248 248 245 242 240